Location: Christchurch
(43.5330°S, 172.6330°E)
Time: 09:22:14
(UTC+13:00)

Cosmos 1933 - Pass Details

Date: 24 January 2019
Orbit: 548 x 564 km, 82.5° (Epoch: 21 February)

Event Time Altitude Azimuth Distance (km) Brightness Sun altitude
Exits shadow 22:58:32 19° 347° (NNW) 1,359 5.0 -17.0°
Maximum altitude 23:01:23 79° 263° (W) 587 3.4 -17.3°
Drops below altitude 10° 23:05:35 10° 174° (S) 1,894 6.7 -17.8°
Sets 23:07:47 0° 172° (S) 2,801 7.6 -18.0°
